[[{"header":{"parameterUnit":"m.s-1","parameterCategory":1,"la1":30.2991,"la2":30.254,"lo1":-89.0895,"lo2":-89.0444,"dy":0.0017,"dx":0.0017,"nx":28,"ny":28,"refTime":"2024-10-16T09:00:00:Z","depth":0,"parameterNumber":2,"parameterNumberName":"U-component_of_WINDS"},"data":[0,0,0,0,0,0,0,0,0,0,0,0,0,0,0,0,0,0,0,0,0,0,0,0,0,0,0,0,0,0,0,0,0,0,0,0,0,0,0,0,0,0,0,0,0,0,0,0,0,0,0,0,0,0,0,0,0,0,-2.2521,-2.2521,0,-2.2531,-2.2531,-2.2531,-2.2485,-2.2483,-2.2482,-2.248,-2.2491,-2.2492,-2.2494,0,0,0,0,0,0,0,0,0,0,0,0,0,-2.246,-2.2462,-2.2521,-2.2521,-2.2521,-2.2531,-2.2531,-2.2532,-2.2485,-2.2483,-2.2481,-2.248,-2.249,-2.2492,-2.2494,0,0,0,0,0,0,0,0,0,0,0,0,0,-2.248,-2.2462,-2.2521,-2.2499,-2.2497,-2.2531,-2.2531,-2.2532,-2.2485,-2.2483,-2.2481,-2.2479,-2.249,-2.2492,-2.2494,-2.255,0,0,-2.2501,-2.2502,0,0,0,0,0,0,0,0,-2.2479,-2.2482,-2.2502,-2.2501,-2.2499,-2.2504,-2.2514,-2.2538,-2.2486,-2.249,-2.248,-2.2478,-2.2497,-2.2499,-2.2505,-2.255,-2.2551,-2.2502,-2.2503,-2.2504,-2.2505,0,0,0,0,0,0,0,-2.2478,-2.2482,-2.2525,-2.2503,-2.25,-2.2489,-2.2489,-2.2518,-2.2505,-2.2489,-2.2486,-2.2488,-2.2496,-2.2503,-2.2505,-2.2551,-2.2502,-2.2504,-2.2505,-2.2506,-2.2642,-2.2644,0,0,0,0,0,0,-2.2479,-2.2481,-2.2525,-2.2525,-2.2484,-2.2491,-2.2492,-2.2505,-2.2504,-2.2502,-2.2489,-2.2485,-2.25,-2.2502,-2.2505,-2.257,-2.2504,-2.2506,-2.2508,-2.2639,-2.2642,-2.2644,0,0,0,0,0,0,-2.2478,-2.2484,-2.2524,-2.2502,-2.2506,-2.2495,-2.2509,-2.2506,-2.2513,-2.2504,-2.2502,-2.2499,-2.2498,-2.2502,-2.2539,-2.257,-2.2507,-2.2509,-2.2637,-2.264,-2.2643,-2.27,0,0,0,0,0,0,-2.2477,-2.2484,-2.2505,-2.2503,-2.2508,-2.2558,-2.2511,-2.2508,-2.2517,-2.2512,-2.2513,-2.2511,-2.2497,-2.2536,-2.2541,-2.2572,-2.2511,-2.2634,-2.2638,-2.2642,-2.2696,-2.2705,-2.2713,0,0,0,0,0,-2.2475,-2.252,-2.2506,-2.2512,-2.2534,-2.256,-2.2563,-2.2546,-2.252,-2.2541,-2.2535,-2.2511,-2.2565,-2.254,-2.2546,-2.2578,-2.2632,-2.2637,-2.2642,-2.2692,-2.2703,-2.2713,0,0,0,0,0,0,-2.2526,-2.252,-2.2504,-2.255,-2.2556,-2.2552,-2.2578,-2.2559,-2.2572,-2.2566,-2.2544,-2.2545,-2.2586,-2.2585,-2.2557,-2.2631,-2.2594,-2.2601,-2.263,-2.2641,-2.265,-2.2649,-2.2513,0,0,0,0,0,-2.2543,-2.2565,-2.2558,-2.26,-2.2603,-2.2591,-2.2601,-2.2587,-2.2592,-2.2595,-2.2592,-2.2597,-2.2616,-2.2628,-2.2644,-2.2695,-2.2695,-2.272,-2.2729,-2.2736,-2.2742,-2.2768,-2.278,-2.2661,-2.2661,-2.2661,0,0,-2.2578,-2.2577,-2.2592,-2.261,-2.2613,-2.2636,-2.2593,-2.2619,-2.2636,-2.2599,-2.2634,-2.2632,-2.2636,-2.2681,-2.27,-2.2681,-2.2774,-2.2742,-2.2748,-2.275,-2.2775,-2.2786,-2.2796,-2.2664,-2.2664,-2.2663,0,0,-2.2653,-2.2655,-2.269,-2.2694,-2.2698,-2.2689,-2.2698,-2.2697,-2.2694,-2.2728,-2.2701,-2.272,-2.2752,-2.2757,-2.2763,-2.284,-2.2818,-2.2846,-2.2892,-2.2919,-2.2928,-2.2936,-2.2964,-2.2974,-2.2852,-2.2852,-2.2852,0,-2.2696,-2.273,-2.271,-2.2739,-2.2747,-2.2714,-2.2749,-2.2754,-2.2764,-2.277,-2.2749,-2.2788,-2.2789,-2.2834,-2.2853,-2.2859,-2.2868,-2.2846,-2.2928,-2.2936,-2.2944,-2.297,-2.298,-2.2855,-2.2855,-2.2854,-2.2854,0,-2.2783,-2.2806,-2.2834,-2.2844,-2.2856,-2.2887,-2.2872,-2.2886,-2.2871,-2.2864,-2.29,-2.29,-2.2915,-2.2925,-2.2911,-2.2968,-2.2956,-2.2932,-2.2895,-2.2959,-2.2983,-2.2993,-2.286,-2.2859,-2.2858,-2.2857,0,0,-2.2892,-2.289,-2.2901,-2.2905,-2.2908,-2.2926,-2.2955,-2.297,-2.2983,-2.2991,-2.3015,-2.3043,-2.302,-2.3028,-2.3013,-2.3036,-2.3097,-2.3009,-2.3009,-2.3026,-2.316,-2.3179,-2.3191,-2.3083,-2.3084,-2.3086,-2.316,0,-2.2966,-2.3017,-2.3,-2.3052,-2.3073,-2.3042,-2.3068,-2.3072,-2.3066,-2.3084,-2.3077,-2.3097,-2.3066,-2.307,-2.3091,-2.3085,-2.3124,-2.308,-2.3105,-2.3106,-2.3106,-2.3203,-2.3223,-2.3293,-2.3169,-2.3171,-2.3172,0,-2.306,-2.3071,-2.3125,-2.3124,-2.3132,-2.3156,-2.3168,-2.3185,-2.3189,-2.3183,-2.3191,-2.3172,-2.3201,-2.3163,-2.3203,-2.3173,-2.3182,-2.3181,-2.3183,-2.3185,-2.3144,-2.3208,-2.3315,-2.3326,-2.3187,-2.3185,-2.3184,0,-2.3134,-2.3163,-2.3199,-2.3204,-2.3203,-2.322,-2.3221,-2.3222,-2.3233,-2.3243,-2.325,-2.3264,-2.3271,-2.3282,-2.3267,-2.3241,-2.3309,-2.327,-2.3305,-2.3306,-2.3321,-2.3321,-2.3431,-2.3327,-2.3327,-2.3326,-2.3326,0,-2.322,-2.3254,-2.3233,-2.3255,-2.3292,-2.3272,-2.331,-2.3306,-2.3308,-2.3329,-2.3303,-2.3323,-2.3301,-2.3319,-2.3308,-2.3342,-2.3346,-2.3342,-2.3338,-2.3345,-2.3345,-2.3351,-2.3346,-2.3329,-2.3328,-2.3328,-2.3327,0,-2.331,-2.3297,-2.3334,-2.333,-2.333,-2.3357,-2.3354,-2.3374,-2.3366,-2.3393,-2.3398,-2.3385,-2.3405,-2.3391,-2.3411,-2.3403,-2.3448,-2.3438,-2.3447,-2.3445,-2.3481,-2.3478,-2.3599,-2.3614,-2.35,-2.3501,-2.3502,0,-2.3365,-2.3391,-2.3389,-2.3402,-2.3404,-2.3423,-2.3434,-2.3414,-2.3426,-2.3432,-2.3452,-2.3469,-2.3482,-2.3515,-2.3508,-2.3523,-2.3513,-2.3554,-2.3515,-2.352,-2.3514,-2.3513,-2.3515,-2.3563,-2.3564,-2.3565,-2.3566,0,-2.3465,-2.3457,-2.3473,-2.3487,-2.3499,-2.3509,-2.3517,-2.3528,-2.3508,-2.3523,-2.3543,-2.3553,-2.3573,-2.3591,-2.3603,-2.3603,-2.3581,-2.3578,-2.3587,-2.3594,-2.3599,-2.3597,-2.347,-2.3576,-2.3575,-2.3574,-2.3574,-2.3573,-2.354,-2.3561,-2.3563,-2.3582,-2.3585,-2.3593,-2.3612,-2.3606,-2.3622,-2.3637,-2.3624,-2.3648,-2.3651,-2.3665,-2.3668,-2.3686,-2.3669,-2.3682,-2.3685,-2.3689,-2.3694,-2.3595,-2.3688,-2.3688,-2.3687,-2.3687,-2.3687,0,-2.3639,-2.3639,-2.3655,-2.3667,-2.3681,-2.3659,-2.3666,-2.368,-2.3701,-2.3705,-2.3719,-2.3741,-2.3758,-2.3752,-2.3767,-2.3783,-2.3774,-2.3788,-2.3787,-2.3787,-2.3708,-2.3699,-2.3795,-2.3795,-2.3795,-2.3795,-2.3795,-2.3795,-2.3692,-2.3727,-2.3719,-2.3756,-2.3755,-2.3778,-2.3784,-2.3791,-2.3794,-2.3821,-2.3835,-2.383,-2.383,-2.3845,-2.386,-2.3857,-2.3864,-2.3882,-2.3876,-2.3803,-2.3793,-2.3782,-2.3774,-2.3884,-2.3884,-2.3953,-2.3954,-2.3954]},{"header":{"parameterUnit":"m.s-1","parameterCategory":1,"la1":30.2991,"la2":30.254,"lo1":-89.0895,"lo2":-89.0444,"dy":0.0017,"dx":0.0017,"nx":28,"ny":28,"refTime":"2024-10-16T09:00:00:Z","depth":0,"parameterNumber":3,"parameterNumberName":"V-component_of_WINDS"},"data":[0,0,0,0,0,0,0,0,0,0,0,0,0,0,0,0,0,0,0,0,0,0,0,0,0,0,0,0,0,0,0,0,0,0,0,0,0,0,0,0,0,0,0,0,0,0,0,0,0,0,0,0,0,0,0,0,0,0,-6.8367,-6.8368,0,-6.8423,-6.8424,-6.8425,-6.8374,-6.8372,-6.8369,-6.8368,-6.842,-6.8423,-6.8426,0,0,0,0,0,0,0,0,0,0,0,0,0,-6.8211,-6.8214,-6.8367,-6.8368,-6.8369,-6.8423,-6.8424,-6.8425,-6.8374,-6.8371,-6.8369,-6.8367,-6.8418,-6.8422,-6.8426,0,0,0,0,0,0,0,0,0,0,0,0,0,-6.8274,-6.8215,-6.8367,-6.835,-6.8349,-6.8423,-6.8424,-6.8425,-6.8374,-6.8371,-6.8368,-6.8365,-6.8417,-6.8422,-6.8427,-6.8519,0,0,-6.8442,-6.8444,0,0,0,0,0,0,0,0,-6.827,-6.828,-6.8352,-6.8351,-6.835,-6.8388,-6.8388,-6.8456,-6.8375,-6.8365,-6.8367,-6.8364,-6.8411,-6.8417,-6.8434,-6.8521,-6.8524,-6.8442,-6.8445,-6.8447,-6.8449,0,0,0,0,0,0,0,-6.8266,-6.8277,-6.8389,-6.8353,-6.8352,-6.8338,-6.8343,-6.8401,-6.8404,-6.8365,-6.8362,-6.8369,-6.841,-6.8429,-6.8434,-6.8524,-6.8442,-6.8447,-6.845,-6.8452,-6.8691,-6.8694,0,0,0,0,0,0,-6.8264,-6.8274,-6.8387,-6.8391,-6.8302,-6.8343,-6.8349,-6.8379,-6.8404,-6.8405,-6.8372,-6.8367,-6.8422,-6.8429,-6.8436,-6.8546,-6.8447,-6.8452,-6.8455,-6.8687,-6.8691,-6.8695,0,0,0,0,0,0,-6.8261,-6.8275,-6.8385,-6.8331,-6.8344,-6.8349,-6.8383,-6.8382,-6.8401,-6.8409,-6.8409,-6.8391,-6.842,-6.8429,-6.8499,-6.8547,-6.8454,-6.8459,-6.8683,-6.8688,-6.8693,-6.8766,0,0,0,0,0,0,-6.8257,-6.8274,-6.831,-6.8333,-6.8348,-6.8449,-6.8386,-6.8385,-6.841,-6.8404,-6.8426,-6.8427,-6.8418,-6.8492,-6.8504,-6.8552,-6.8463,-6.8679,-6.8686,-6.8692,-6.8759,-6.8773,-6.8785,0,0,0,0,0,-6.8252,-6.8327,-6.8312,-6.8326,-6.8393,-6.8452,-6.846,-6.845,-6.8414,-6.845,-6.8455,-6.8426,-6.854,-6.85,-6.8513,-6.8563,-6.8676,-6.8684,-6.8691,-6.8754,-6.877,-6.8784,0,0,0,0,0,0,-6.8308,-6.833,-6.8314,-6.8399,-6.8424,-6.8443,-6.8488,-6.8468,-6.8502,-6.8494,-6.8479,-6.8484,-6.8558,-6.8567,-6.8522,-6.8653,-6.8602,-6.8612,-6.8645,-6.8661,-6.8673,-6.8669,-6.8467,0,0,0,0,0,-6.8331,-6.8379,-6.8394,-6.8468,-6.8482,-6.8483,-6.8508,-6.8498,-6.8523,-6.8533,-6.8543,-6.8566,-6.8607,-6.8634,-6.8672,-6.876,-6.8764,-6.8801,-6.8814,-6.8824,-6.8833,-6.8881,-6.8897,-6.872,-6.872,-6.872,0,0,-6.8377,-6.8395,-6.8426,-6.848,-6.8498,-6.8547,-6.8492,-6.8545,-6.858,-6.854,-6.8607,-6.8616,-6.8641,-6.8721,-6.8756,-6.873,-6.8883,-6.8834,-6.8842,-6.8846,-6.889,-6.8907,-6.8922,-6.8725,-6.8724,-6.8723,0,0,-6.8487,-6.8506,-6.857,-6.859,-6.862,-6.862,-6.8636,-6.8658,-6.8663,-6.8731,-6.8702,-6.8742,-6.8813,-6.8833,-6.8852,-6.897,-6.8945,-6.8983,-6.9049,-6.9095,-6.9109,-6.9121,-6.9164,-6.9179,-6.8992,-6.8992,-6.8993,0,-6.8541,-6.8615,-6.8605,-6.8661,-6.8685,-6.8653,-6.8717,-6.8737,-6.8776,-6.8793,-6.8764,-6.8853,-6.8868,-6.8951,-6.8981,-6.8997,-6.9013,-6.898,-6.9108,-6.912,-6.9132,-6.9172,-6.9188,-6.8997,-6.8996,-6.8996,-6.8995,0,-6.8679,-6.8731,-6.8779,-6.8821,-6.885,-6.891,-6.8907,-6.8938,-6.8926,-6.8929,-6.8999,-6.9015,-6.9057,-6.9076,-6.9063,-6.9158,-6.9141,-6.9111,-6.9058,-6.9153,-6.9191,-6.9206,-6.9003,-6.9002,-6.9,-6.8999,0,0,-6.8825,-6.8863,-6.888,-6.8899,-6.893,-6.8968,-6.9026,-6.9069,-6.9095,-6.9124,-6.9171,-6.9233,-6.9205,-6.9227,-6.9216,-6.9257,-6.935,-6.9221,-6.9221,-6.9245,-6.9455,-6.9478,-6.9496,-6.9334,-6.9337,-6.9339,-6.9453,0,-6.8937,-6.904,-6.9033,-6.9129,-6.9177,-6.9147,-6.9198,-6.9221,-6.9226,-6.9265,-6.9269,-6.9313,-6.9273,-6.9286,-6.9325,-6.9331,-6.9392,-6.9322,-6.9377,-6.9379,-6.9372,-6.9516,-6.954,-6.9647,-6.9468,-6.947,-6.9472,0,-6.908,-6.9117,-6.9218,-6.9243,-6.9262,-6.9308,-6.9347,-6.9385,-6.9411,-6.9411,-6.9436,-6.9419,-6.9476,-6.9424,-6.9501,-6.9454,-6.9476,-6.9482,-6.9486,-6.949,-6.9431,-6.9524,-6.9681,-6.9697,-6.9495,-6.9493,-6.9491,0,-6.9177,-6.9251,-6.9321,-6.9338,-6.9369,-6.9401,-6.9415,-6.9438,-6.9464,-6.9497,-6.9514,-6.9553,-6.9574,-6.9603,-6.9597,-6.9559,-6.9676,-6.9623,-6.9677,-6.9678,-6.9703,-6.9701,-6.9865,-6.9718,-6.9717,-6.9717,-6.9717,0,-6.9302,-6.9365,-6.9366,-6.9409,-6.9479,-6.947,-6.9539,-6.9548,-6.9569,-6.9613,-6.9589,-6.963,-6.9619,-6.9659,-6.9654,-6.972,-6.9729,-6.973,-6.9728,-6.9732,-6.9732,-6.9746,-6.9738,-6.9721,-6.972,-6.9719,-6.9719,0,-6.9421,-6.9424,-6.9499,-6.9523,-6.953,-6.9581,-6.96,-6.964,-6.9643,-6.9699,-6.9711,-6.9715,-6.9762,-6.9759,-6.981,-6.9807,-6.9887,-6.9876,-6.988,-6.9877,-6.9932,-6.9927,-7.011,-7.0134,-6.9971,-6.9972,-6.9974,0,-6.9501,-6.9549,-6.9579,-6.9608,-6.9624,-6.967,-6.9698,-6.9691,-6.972,-6.9753,-6.9789,-6.9834,-6.9869,-6.9944,-6.9951,-6.999,-6.998,-7.0042,-6.9986,-6.9989,-6.9981,-6.9978,-6.9983,-7.0052,-7.0054,-7.0056,-7.0057,0,-6.9642,-6.9641,-6.9683,-6.9725,-6.9759,-6.9792,-6.9821,-6.9845,-6.9841,-6.9875,-6.9923,-6.9951,-7.0005,-7.0049,-7.0087,-7.0099,-7.0077,-7.0075,-7.0089,-7.0094,-7.0094,-7.0095,-6.9909,-7.007,-7.0069,-7.0068,-7.0067,-7.0067,-6.9744,-6.9786,-6.9814,-6.9861,-6.9883,-6.9911,-6.9951,-6.996,-7.0001,-7.0046,-7.0038,-7.0092,-7.0116,-7.0165,-7.0181,-7.0222,-7.02,-7.0221,-7.0227,-7.0232,-7.0238,-7.0088,-7.0229,-7.0229,-7.0228,-7.0228,-7.0228,0,-6.9883,-6.99,-6.9944,-6.9987,-7.0024,-7.0003,-7.0035,-7.0067,-7.0115,-7.0141,-7.0177,-7.0232,-7.0275,-7.0286,-7.0327,-7.0358,-7.0349,-7.0369,-7.0366,-7.037,-7.0256,-7.0239,-7.0376,-7.0376,-7.0376,-7.0376,-7.0376,-7.0376,-6.996,-7.0031,-7.0034,-7.0114,-7.013,-7.0185,-7.0205,-7.023,-7.0251,-7.0315,-7.0352,-7.0359,-7.0378,-7.0421,-7.0459,-7.0461,-7.0477,-7.0501,-7.0499,-7.0392,-7.0378,-7.0363,-7.0348,-7.0505,-7.0505,-7.0609,-7.061,-7.0611]}]]